Delta Junction, AK

6:01 PM AKDT on August 23, 2016 (GMT -0800)
Allen Army Air Field

Weather History for PABI - April, 2014

Change the Weather History Date:

Saturday, April 5, 2014

  Actual Average Record
Temperature  
Mean Temperature 32 °F -  
Max Temperature 41 °F 33 °F 51 °F (2016)
Min Temperature 23 °F 12 °F -6 °F (2002)
Degree Days  
Heating Degree Days 33    
Moisture  
Dew Point 14 °F    
Average Humidity 46    
Maximum Humidity 69    
Minimum Humidity 20    
Precipitation  
Precipitation 0.00 in - - ()
Sea Level Pressure  
Sea Level Pressure 29.45 in    
Wind  
Wind Speed 4 mph (SSW)    
Max Wind Speed 10 mph    
Max Gust Speed -    
Visibility 10 miles    
Events      
Averages and records for this station are not official NWS values.
T = Trace of Precipitation, MM = Missing Value Source: NWS Daily Summary

Daily Weather History Graph

Daily Weather History Graph

Search for Another Location

Airport or City:

Trip Planner

Search our weather history database for the weather conditions in past years. The results will help you decide how hot, cold, wet, or windy it might be!

Date:

Astronomy

Apr. 05, 2014 Rise Set
Actual Time 6:46 AM AKDT 8:46 PM AKDT
Civil Twilight 5:55 AM AKDT 9:37 PM AKDT
Nautical Twilight 4:48 AM AKDT 10:45 PM AKDT
Astronomical Twilight 3:12 AM AKDT 12:26 AM AKDT
Moon 9:41 AM AKDT (4/5) 3:23 AM AKDT (4/5)
Length of Visible Light 15h 42m
Length of Day
14h 00m
Waxing Crescent, 36% of the Moon is Illuminated
Apr 5
Waxing Crescent
Apr 7
First Quarter
Apr 14
Full
Apr 21
Last Quarter
Apr 28
New

Hourly Weather History & Observations

Time (AKDT) Temp. Windchill Dew Point Humidity Pressure Visibility Wind Dir Wind Speed Gust Speed Precip Events Conditions
12:53 AM 32.0 °F - 12.9 °F 45% 29.47 in 10.0 mi Calm Calm - N/A   Overcast
1:53 AM 30.0 °F 22.4 °F 14.0 °F 51% 29.47 in 10.0 mi SSW 8.1 mph - N/A   Overcast
2:53 AM 30.9 °F 22.8 °F 15.1 °F 52% 29.46 in 10.0 mi South 9.2 mph - N/A   Mostly Cloudy
3:53 AM 30.0 °F 21.1 °F 15.1 °F 54% 29.45 in 10.0 mi SSW 10.4 mph - N/A   Overcast
4:53 AM 28.9 °F 21.1 °F 14.0 °F 54% 29.46 in 10.0 mi South 8.1 mph - N/A   Mostly Cloudy
5:53 AM 27.0 °F 23.0 °F 14.0 °F 58% 29.46 in 10.0 mi South 3.5 mph - N/A   Scattered Clouds
6:53 AM 27.0 °F - 12.9 °F 56% 29.47 in 10.0 mi Calm Calm - N/A   Mostly Cloudy
7:53 AM 25.0 °F - 15.1 °F 66% 29.48 in 10.0 mi Calm Calm - N/A   Mostly Cloudy
8:53 AM 25.0 °F - 16.0 °F 69% 29.48 in 10.0 mi Calm Calm - N/A   Mostly Cloudy
9:53 AM 27.0 °F - 14.0 °F 58% 29.48 in 10.0 mi Calm Calm - N/A   Mostly Cloudy
10:53 AM 30.0 °F 25.2 °F 14.0 °F 51% 29.47 in 10.0 mi ESE 4.6 mph - N/A   Mostly Cloudy
11:53 AM 33.1 °F - 12.9 °F 43% 29.47 in 10.0 mi Calm Calm - N/A   Mostly Cloudy
12:53 PM 35.1 °F - 12.9 °F 40% 29.46 in 10.0 mi Calm Calm - N/A   Mostly Cloudy
1:53 PM 37.0 °F - 14.0 °F 39% 29.45 in 10.0 mi Calm Calm - N/A   Mostly Cloudy
2:53 PM 37.0 °F 32.4 °F 12.9 °F 37% 29.44 in 10.0 mi NNE 5.8 mph - N/A   Mostly Cloudy
3:53 PM 39.0 °F 34.0 °F 12.0 °F 33% 29.43 in 10.0 mi NNE 6.9 mph - N/A   Mostly Cloudy
4:53 PM 39.0 °F - 10.9 °F 32% 29.43 in 10.0 mi Calm Calm - N/A   Mostly Cloudy
5:53 PM 41.0 °F 39.0 °F 12.0 °F 31% 29.43 in 10.0 mi Variable 3.5 mph - N/A   Mostly Cloudy
6:53 PM 39.9 °F - 12.0 °F 32% 29.43 in 10.0 mi Calm Calm - N/A   Mostly Cloudy
7:53 PM 39.0 °F - 12.9 °F 34% 29.43 in 10.0 mi Calm Calm - N/A   Mostly Cloudy
8:53 PM 36.0 °F 29.6 °F 15.1 °F 43% 29.44 in 10.0 mi West 8.1 mph - N/A   Mostly Cloudy
9:53 PM 35.1 °F - 17.1 °F 48% 29.45 in 10.0 mi Calm Calm - N/A   Partly Cloudy
10:53 PM 32.0 °F 28.7 °F 17.1 °F 54% 29.46 in 10.0 mi WSW 3.5 mph - N/A   Mostly Cloudy
11:53 PM 30.0 °F 25.2 °F 19.0 °F 64% 29.46 in 10.0 mi SSW 4.6 mph - N/A   Overcast